Wind_Speed
23 24 24 24 25 25 24 23 23 24 25 25 24 23 23 22 22 23 22 21 21 21 21 21 20 20 19 19 19 19 18 18 17 17 17 16 16 15 15 15 15 14 14 14 13 13 13 13 13
24 24 25 25 25 24 24 23 24 25 25 25 25 25 24 24 23 23 22 22 22 22 22 22 22 22 21 21 20 20 20 19 19 18 18 18 18 17 16 16 16 16 16 15 15 15 15 14 14
25 25 25 25 24 23 24 24 25 26 25 25 25 26 25 25 25 24 23 23 23 23 23 23 23 23 23 23 22 22 21 21 20 20 20 19 19 18 18 18 18 17 17 17 17 17 17 16 16
25 26 26 25 24 24 25 25 26 26 26 26 26 27 26 26 26 25 25 24 24 24 24 23 23 24 24 24 24 23 23 23 22 22 22 21 21 21 20 20 19 19 19 19 19 19 19 19 19
27 26 26 25 24 25 26 27 28 28 27 27 27 27 27 27 27 27 26 26 26 26 26 25 25 25 25 25 25 25 25 24 24 24 24 23 23 23 23 22 22 21 21 21 22 22 21 21 21
28 28 27 25 25 26 27 28 29 29 29 28 28 28 28 28 28 28 27 27 27 27 27 27 26 26 26 26 26 26 26 25 25 25 24 24 24 24 25 24 24 24 24 24 24 24 24 23 23
28 28 27 26 26 26 27 28 28 29 30 30 30 29 29 29 29 29 29 29 29 29 28 28 28 28 28 27 27 27 27 28 27 27 27 26 27 26 26 26 26 26 26 25 25 25 25 25 25
29 29 27 26 26 27 27 28 28 29 30 30 30 30 30 31 31 31 31 31 31 30 30 30 30 30 30 30 30 29 29 29 29 29 29 29 29 29 29 28 28 28 28 28 27 27 27 27 27
30 30 28 27 27 27 27 28 28 29 29 30 30 30 30 31 32 32 33 33 32 32 32 32 31 32 32 32 31 31 31 31 31 31 31 31 30 30 30 30 30 29 29 29 29 29 29 30 30
30 29 27 28 28 28 28 28 28 28 28 29 30 30 31 31 32 33 33 33 33 33 33 33 33 33 33 33 33 33 33 32 32 32 32 32 32 32 32 32 32 32 32 31 31 32 32 32 32
30 29 29 29 29 29 29 29 28 28 28 28 29 29 30 31 32 33 33 34 33 33 33 33 33 34 34 34 34 34 34 34 34 34 34 34 33 34 34 34 34 34 34 34 34 34 34 34 34
31 30 30 30 30 30 30 29 29 28 28 28 29 29 30 31 32 32 33 34 34 34 34 34 34 35 35 35 35 35 35 35 36 35 35 35 35 35 35 35 36 36 36 36 36 37 37 37 37
33 31 31 31 31 31 30 30 29 28 29 29 29 29 30 30 31 32 33 33 33 34 35 35 36 36 36 36 36 36 36 36 36 37 36 36 36 36 37 37 38 38 38 38 39 39 39 40 40
34 33 32 32 31 31 31 31 30 28 30 30 30 30 30 30 31 32 32 33 33 34 35 35 36 36 37 37 36 37 37 37 37 37 37 38 38 39 39 39 39 40 40 41 41 42 42 42 43
35 35 34 33 33 32 33 32 30 30 31 31 31 31 31 31 31 32 32 33 34 34 35 35 36 36 37 37 37 37 38 38 38 38 39 39 40 40 40 41 41 41 42 42 43 43 44 44 44
36 36 35 34 34 34 35 32 31 32 33 32 32 32 32 32 33 33 33 34 34 35 35 36 36 37 37 38 38 38 39 40 40 40 40 41 41 42 42 42 42 43 43 44 44 45 45 46 47
38 37 36 35 36 36 36 34 33 34 34 33 33 33 33 33 33 34 34 35 35 36 37 37 37 38 38 38 39 39 40 40 41 41 42 43 43 43 44 44 44 45 45 46 46 47 47 48 49
39 38 37 37 37 37 37 36 35 35 35 35 34 34 33 33 33 34 34 34 35 36 38 39 39 39 39 40 40 40 41 42 42 43 44 45 45 45 46 46 47 47 47 48 49 50 50 51 52
40 40 39 39 39 39 39 38 37 36 36 36 35 35 34 34 35 35 35 35 35 36 38 39 40 40 41 41 41 42 43 43 44 45 46 46 47 47 47 48 49 49 50 50 51 51 52 52 53
41 41 40 40 40 40 40 39 38 38 37 37 36 36 36 36 37 37 37 37 37 38 38 39 41 42 42 42 43 43 44 44 45 45 46 47 47 47 48 49 49 50 51 51 51 52 52 53 54
42 42 41 41 41 42 42 41 39 38 38 38 38 38 37 37 38 38 38 38 39 39 39 40 41 42 43 43 43 43 44 45 46 46 47 47 48 48 48 49 49 50 51 51 51 52 53 53 53
42 42 42 42 42 43 43 43 40 39 39 39 39 39 39 38 39 39 39 39 39 40 40 41 41 42 43 43 44 44 45 46 46 47 47 48 48 48 49 49 50 51 51 52 53 54 53 53 53
44 43 43 43 44 45 44 45 42 40 39 40 40 39 39 39 39 39 39 40 40 40 41 41 42 43 44 44 45 45 46 47 47 48 49 49 49 49 50 50 51 52 52 53 53 53 53 54 54
44 44 44 44 45 46 44 45 44 40 39 40 40 40 40 41 41 41 40 40 41 41 42 42 43 43 44 44 44 45 47 48 48 49 50 50 50 51 51 52 53 53 54 54 53 54 54 54 55
43 43 43 44 45 46 44 44 44 41 40 40 40 40 40 40 41 41 41 42 42 43 43 43 43 44 44 45 45 46 48 49 50 50 50 51 52 52 52 53 54 55 55 55 55 55 54 55 56
42 42 43 44 45 45 45 44 43 41 40 39 39 39 39 40 40 41 42 42 43 43 43 43 44 44 45 46 47 48 49 50 51 51 51 52 52 53 53 54 54 55 55 55 56 56 56 56 57
42 42 41 42 44 45 45 45 44 42 40 39 39 39 39 40 40 41 41 41 42 43 42 43 44 44 45 45 47 48 49 50 50 51 51 52 53 53 54 54 55 55 55 55 56 56 56 56 56
42 42 42 42 42 43 45 44 42 40 40 39 39 39 39 39 39 40 40 41 41 41 42 42 43 44 45 46 47 47 48 48 49 50 52 53 54 54 54 54 55 55 55 55 56 56 55 55 55
40 41 42 43 44 43 43 43 42 40 39 39 38 37 37 38 39 39 39 40 40 40 40 41 42 43 44 46 47 47 48 48 49 50 52 53 53 53 54 54 54 54 53 53 53 53 53 53 52
39 40 40 41 43 43 42 43 41 40 39 39 38 37 37 38 38 38 38 39 39 40 40 40 41 42 44 45 47 48 48 48 49 50 51 51 51 52 52 53 52 51 51 50 50 50 50 50 49
Wind_Direction
240 241 242 242 242 243 243 242 241 240 240 240 240 240 240 240 240 241 241 240 240 240 240 240 241 240 240 239 239 241 242 244 245 246 246 247 248 248 249 251 254 257 258 258 258 259 260 262 263
241 241 242 243 243 244 243 242 240 239 239 240 240 240 240 240 240 241 241 241 241 242 241 242 243 243 242 241 241 242 244 245 246 247 248 248 249 249 250 252 254 257 258 260 260 259 261 263 264
242 242 242 243 244 244 243 241 240 239 239 239 240 240 240 240 240 241 241 241 241 242 242 242 243 244 244 244 244 244 246 247 248 249 249 250 251 251 252 253 254 256 258 260 261 261 262 264 265
242 242 243 244 244 243 242 241 241 241 240 240 240 241 241 241 241 241 241 242 242 242 243 244 244 245 246 246 247 247 247 248 249 250 251 252 253 253 254 254 254 256 257 258 260 262 264 265 266
242 243 243 244 244 243 242 241 241 242 242 242 242 242 242 241 241 241 241 242 243 244 244 245 247 247 248 248 249 249 250 250 250 251 252 253 254 255 255 255 256 257 257 258 260 262 264 265 267
242 243 244 244 244 243 243 242 241 242 243 243 243 243 242 242 242 241 242 242 243 244 245 246 247 249 250 250 251 251 251 251 252 253 253 253 255 256 256 256 258 258 259 259 260 261 263 264 266
242 242 243 242 242 243 243 242 242 243 243 244 245 245 244 244 243 243 243 243 244 245 246 248 249 249 250 251 252 253 253 253 253 254 254 255 256 257 258 257 258 259 260 261 261 261 263 265 266
242 242 242 241 241 242 243 243 243 243 244 245 245 246 245 245 245 245 245 246 246 247 248 249 250 251 251 252 253 253 253 254 254 254 255 256 257 258 259 259 259 260 260 261 262 262 264 265 267
241 242 241 240 241 242 243 244 244 244 245 245 246 246 247 247 246 246 246 247 247 248 249 250 251 252 252 252 253 253 254 254 255 255 256 257 258 259 260 260 260 261 261 262 263 264 265 266 267
241 242 241 240 241 242 243 244 244 245 245 246 247 247 247 247 247 247 247 248 248 249 250 250 251 252 252 253 254 254 255 256 256 257 258 258 258 259 260 260 260 261 262 263 264 264 265 267 268
242 242 241 240 241 242 243 244 245 246 247 247 247 247 247 248 248 248 248 249 249 250 251 251 251 252 253 254 255 256 256 256 257 257 258 259 260 260 261 261 261 262 263 264 265 266 267 268 269
242 242 241 241 242 242 243 243 244 246 247 248 248 248 249 249 249 249 250 250 250 250 251 252 252 253 253 254 255 256 257 257 257 258 259 260 261 261 262 262 263 263 264 265 266 267 267 268 269
242 242 242 242 242 242 243 244 245 246 247 248 249 249 250 250 250 250 250 250 250 250 251 252 253 253 254 254 255 256 257 258 259 259 260 261 262 263 264 264 263 264 265 265 266 266 267 268 269
242 242 242 243 243 243 243 244 245 246 247 248 249 250 250 250 251 252 251 251 251 251 251 252 253 254 255 255 256 256 257 258 259 260 261 262 263 264 265 265 265 266 266 267 268 268 268 269 269
243 243 243 243 244 244 244 244 245 245 247 249 250 250 251 251 252 252 252 252 252 252 252 253 253 254 255 256 256 257 258 259 260 261 262 263 263 264 266 266 267 267 268 268 268 269 269 269 270
243 244 244 244 245 244 245 244 246 247 248 249 250 251 252 252 253 254 254 253 253 253 253 253 253 254 255 256 257 258 259 260 261 262 263 263 264 265 266 267 268 269 269 269 269 269 270 271 271
243 244 245 244 245 245 246 246 246 248 249 250 251 252 252 253 254 254 255 255 254 254 254 254 254 255 256 258 259 260 261 261 262 263 264 265 265 266 267 268 269 269 270 270 270 271 271 272 272
245 245 245 245 246 246 248 248 247 248 249 250 251 251 252 253 253 254 255 256 257 256 256 255 255 256 257 258 260 261 262 263 264 265 266 266 267 267 268 269 270 270 271 271 272 272 272 273 273
245 245 246 246 246 247 248 249 249 249 250 251 251 252 253 253 254 256 257 258 259 259 258 257 256 256 257 258 260 261 263 264 266 266 267 267 268 268 269 270 270 271 271 272 273 273 273 273 273
246 246 247 247 247 248 248 249 250 251 251 251 252 253 254 255 256 257 258 260 260 261 261 259 258 257 257 258 260 261 263 265 266 267 267 268 269 270 270 271 271 272 272 273 274 275 275 275 274
246 247 248 248 248 249 250 249 250 252 252 252 253 254 255 257 258 259 259 260 261 261 261 260 258 257 258 259 260 262 263 264 266 267 269 270 270 271 271 272 272 273 273 274 274 275 276 275 274
246 247 248 249 249 250 250 251 249 251 252 253 254 255 257 258 258 259 260 260 261 262 261 260 259 258 258 259 261 262 263 265 267 269 270 270 271 272 272 272 273 274 274 275 275 276 275 275 274
246 247 248 249 251 251 250 253 251 251 252 253 255 256 257 257 258 259 260 260 261 262 262 261 260 259 259 260 261 263 264 266 267 269 270 271 271 272 272 273 273 274 275 276 275 275 275 275 275
246 247 248 249 250 251 251 254 253 252 252 254 255 256 257 257 258 259 260 261 261 262 262 261 260 260 260 261 262 264 266 267 268 269 270 271 272 273 273 274 274 275 276 276 276 276 276 276 276
245 246 248 249 250 252 252 254 255 254 253 254 256 257 257 257 258 260 261 262 262 263 263 262 261 260 261 261 263 265 267 268 269 270 270 271 272 273 274 275 275 275 276 276 276 275 276 276 276
244 245 247 250 252 253 254 255 255 256 256 256 257 258 259 259 260 261 262 262 262 263 262 261 260 261 261 262 264 266 268 269 269 270 270 272 272 273 275 276 276 276 276 276 275 275 276 276 277
242 243 246 250 252 254 254 255 256 257 258 258 258 259 261 261 262 262 262 263 263 262 262 261 261 261 262 264 266 266 268 268 269 270 271 272 273 274 275 276 276 276 276 276 276 276 275 276 277
241 243 244 247 250 252 254 256 257 258 261 261 261 262 263 264 264 263 264 264 263 262 262 261 262 262 263 265 267 267 268 269 270 271 272 273 274 275 275 276 276 276 276 277 277 276 276 276 277
239 241 244 247 249 251 255 257 258 260 261 262 263 264 264 264 264 264 264 263 262 262 263 262 262 262 264 267 267 267 268 269 270 272 273 274 274 275 276 276 276 276 276 277 279 277 276 276 277
238 240 243 246 250 252 255 257 258 260 262 263 263 263 264 263 263 263 263 262 262 263 263 263 263 264 266 267 268 269 269 270 271 273 274 274 275 276 277 277 277 276 276 278 279 278 277 276 276
Height
5815 5816 5818 5820 5822 5823 5825 5827 5828 5828 5830 5831 5833 5834 5836 5838 5840 5843 5843 5843 5844 5845 5846 5847 5848 5850 5851 5852 5853 5854 5855 5856 5856 5857 5858 5858 5859 5860 5860 5860 5861 5861 5861 5861 5862 5862 5862 5862 5862
5811 5812 5814 5816 5817 5819 5821 5822 5823 5824 5825 5827 5828 5830 5831 5833 5835 5836 5837 5839 5840 5841 5843 5844 5845 5846 5847 5849 5850 5851 5852 5853 5854 5854 5855 5856 5856 5857 5857 5858 5858 5858 5858 5859 5859 5859 5859 5859 5859
5806 5807 5810 5811 5813 5815 5816 5818 5818 5819 5821 5822 5824 5825 5827 5829 5830 5832 5833 5835 5836 5837 5839 5840 5841 5843 5844 5845 5846 5847 5848 5850 5850 5851 5852 5853 5853 5854 5854 5855 5855 5855 5856 5856 5856 5856 5856 5856 5856
5801 5803 5805 5807 5808 5810 5811 5812 5813 5814 5816 5818 5819 5821 5822 5825 5826 5828 5829 5831 5832 5833 5834 5836 5837 5839 5840 5841 5843 5844 5845 5846 5847 5848 5848 5849 5850 5850 5851 5851 5852 5852 5852 5853 5853 5853 5853 5853 5853
5796 5798 5800 5801 5803 5804 5805 5806 5808 5809 5811 5813 5814 5816 5818 5820 5821 5823 5825 5826 5828 5829 5830 5832 5833 5834 5836 5837 5838 5840 5841 5842 5843 5843 5844 5845 5846 5846 5847 5847 5848 5848 5849 5849 5849 5849 5849 5849 5849
5791 5792 5795 5796 5797 5798 5799 5801 5802 5804 5806 5807 5809 5811 5812 5814 5816 5818 5819 5821 5823 5824 5826 5827 5828 5830 5831 5832 5834 5835 5836 5837 5838 5839 5840 5840 5841 5842 5842 5843 5843 5844 5844 5844 5845 5845 5845 5845 5845
5785 5786 5788 5791 5792 5793 5794 5795 5797 5798 5800 5802 5803 5805 5807 5809 5810 5812 5814 5816 5817 5819 5820 5822 5823 5825 5826 5827 5829 5830 5831 5832 5833 5834 5835 5835 5836 5837 5837 5838 5839 5839 5839 5840 5840 5840 5840 5840 5840
5778 5781 5782 5785 5786 5787 5788 5789 5791 5793 5794 5796 5798 5800 5801 5803 5804 5806 5808 5810 5812 5813 5815 5816 5818 5819 5820 5822 5823 5824 5825 5827 5828 5829 5830 5830 5831 5832 5832 5833 5833 5834 5834 5834 5834 5835 5835 5835 5835
5771 5775 5777 5779 5780 5781 5782 5784 5785 5787 5789 5790 5792 5794 5795 5797 5798 5800 5802 5804 5806 5807 5809 5810 5812 5813 5814 5816 5817 5818 5819 5821 5822 5823 5823 5824 5825 5826 5826 5827 5827 5828 5828 5828 5829 5829 5829 5829 5829
5765 5768 5771 5772 5774 5775 5776 5777 5779 5781 5783 5784 5786 5787 5789 5790 5792 5794 5795 5797 5799 5801 5803 5804 5806 5807 5808 5810 5811 5812 5813 5814 5815 5816 5817 5818 5819 5819 5820 5821 5821 5821 5822 5822 5822 5822 5823 5823 5823
5759 5762 5764 5765 5766 5768 5770 5771 5773 5775 5777 5778 5780 5781 5782 5784 5785 5787 5789 5791 5793 5794 5796 5797 5799 5800 5802 5803 5804 5805 5806 5808 5809 5810 5811 5811 5812 5813 5813 5814 5814 5815 5815 5815 5815 5816 5816 5816 5816
5752 5754 5756 5758 5759 5761 5763 5765 5767 5769 5771 5771 5773 5774 5776 5777 5779 5780 5782 5784 5786 5787 5789 5790 5792 5793 5795 5796 5797 5798 5799 5801 5801 5802 5803 5804 5805 5806 5806 5807 5807 5807 5808 5808 5808 5808 5808 5808 5808
5744 5747 5749 5751 5752 5755 5756 5758 5760 5763 5764 5765 5766 5767 5769 5770 5772 5773 5775 5776 5778 5780 5781 5783 5784 5786 5787 5788 5790 5791 5792 5793 5794 5795 5796 5797 5797 5798 5799 5799 5799 5800 5800 5800 5800 5800 5800 5800 5799
5737 5740 5742 5744 5745 5748 5750 5752 5754 5756 5756 5758 5759 5761 5762 5763 5765 5766 5768 5769 5770 5772 5774 5775 5777 5778 5779 5781 5782 5783 5784 5785 5786 5787 5788 5789 5789 5790 5791 5791 5791 5791 5791 5791 5791 5791 5791 5791 5790
5729 5732 5734 5736 5738 5740 5742 5745 5747 5748 5749 5751 5752 5754 5755 5756 5757 5759 5760 5761 5763 5764 5766 5767 5769 5770 5771 5773 5774 5775 5776 5777 5778 5779 5780 5780 5781 5781 5782 5782 5782 5782 5782 5782 5782 5781 5781 5781 5781
5720 5723 5726 5729 5730 5732 5735 5738 5740 5740 5741 5743 5745 5746 5747 5749 5750 5751 5752 5753 5754 5756 5758 5759 5760 5762 5763 5764 5765 5766 5767 5769 5769 5770 5771 5771 5772 5772 5773 5773 5773 5773 5772 5772 5772 5771 5771 5770 5770
5711 5715 5718 5721 5722 5724 5726 5730 5732 5732 5733 5735 5737 5738 5739 5740 5741 5742 5743 5744 5745 5746 5748 5750 5751 5753 5754 5755 5756 5758 5758 5759 5760 5761 5762 5762 5762 5762 5763 5763 5763 5762 5762 5762 5761 5761 5760 5759 5759
5703 5706 5709 5711 5713 5715 5717 5720 5723 5723 5725 5727 5728 5729 5730 5732 5733 5733 5734 5735 5736 5737 5738 5740 5741 5743 5744 5746 5747 5748 5749 5750 5751 5751 5752 5752 5752 5752 5752 5752 5752 5751 5751 5750 5750 5749 5748 5747 5746
5693 5696 5699 5701 5703 5706 5708 5711 5713 5715 5716 5718 5719 5720 5722 5723 5724 5724 5725 5726 5726 5727 5728 5729 5731 5732 5734 5735 5737 5738 5739 5740 5741 5741 5741 5741 5741 5741 5741 5741 5740 5740 5739 5739 5738 5736 5736 5735 5733
5683 5686 5689 5691 5693 5696 5698 5701 5704 5705 5707 5709 5710 5711 5713 5714 5714 5715 5716 5717 5717 5717 5718 5719 5720 5721 5723 5725 5727 5728 5729 5730 5730 5730 5730 5730 5730 5730 5729 5729 5728 5727 5727 5726 5725 5723 5722 5721 5719
5672 5676 5679 5681 5683 5685 5688 5691 5694 5696 5697 5699 5700 5702 5703 5704 5705 5705 5706 5707 5707 5707 5708 5708 5709 5710 5712 5714 5716 5717 5718 5718 5719 5719 5719 5719 5718 5718 5717 5716 5716 5715 5714 5713 5712 5710 5708 5707 5705
5662 5665 5667 5670 5672 5674 5677 5679 5685 5686 5687 5689 5690 5692 5693 5694 5694 5695 5696 5696 5696 5697 5697 5697 5698 5699 5701 5703 5704 5706 5707 5707 5708 5708 5707 5707 5706 5706 5705 5704 5703 5702 5701 5700 5698 5696 5694 5692 5692
5650 5654 5656 5658 5660 5663 5666 5667 5673 5676 5678 5679 5681 5682 5683 5683 5684 5684 5685 5685 5686 5686 5686 5686 5687 5688 5690 5692 5693 5694 5695 5695 5696 5695 5695 5695 5694 5693 5692 5691 5690 5689 5687 5686 5684 5682 5680 5679 5678
5639 5643 5645 5646 5648 5651 5656 5657 5661 5665 5668 5669 5670 5671 5672 5672 5673 5673 5674 5674 5674 5675 5675 5675 5676 5677 5679 5680 5681 5682 5683 5683 5683 5683 5682 5682 5681 5680 5679 5678 5676 5675 5673 5672 5670 5668 5667 5665 5663
5628 5632 5634 5635 5637 5640 5644 5646 5650 5654 5656 5658 5659 5660 5661 5661 5662 5662 5662 5663 5663 5663 5663 5663 5664 5665 5667 5668 5669 5670 5670 5670 5670 5670 5670 5669 5668 5667 5666 5664 5663 5661 5659 5657 5656 5654 5653 5651 5649
5617 5621 5624 5626 5628 5630 5633 5635 5640 5642 5645 5646 5648 5648 5649 5650 5651 5651 5651 5651 5651 5651 5651 5652 5652 5653 5655 5656 5657 5657 5657 5657 5657 5656 5656 5655 5654 5653 5652 5650 5648 5646 5644 5643 5641 5639 5638 5636 5634
5605 5609 5613 5615 5616 5619 5621 5624 5628 5630 5633 5635 5637 5638 5638 5639 5639 5639 5639 5639 5639 5639 5639 5640 5641 5641 5643 5643 5643 5644 5643 5643 5643 5643 5642 5641 5640 5639 5637 5635 5633 5631 5629 5627 5626 5624 5623 5621 5619
5595 5598 5601 5603 5605 5607 5610 5614 5617 5620 5622 5624 5626 5627 5627 5628 5628 5628 5628 5628 5627 5627 5628 5629 5629 5630 5631 5631 5631 5631 5631 5630 5630 5629 5628 5627 5626 5624 5622 5620 5618 5616 5614 5612 5611 5609 5608 5606 5604
5584 5588 5590 5592 5595 5598 5600 5606 5607 5609 5611 5612 5614 5615 5616 5617 5617 5617 5617 5617 5617 5617 5617 5618 5618 5619 5619 5619 5619 5619 5618 5617 5617 5616 5614 5613 5611 5609 5607 5605 5603 5602 5600 5598 5596 5594 5593 5591 5590
5573 5576 5580 5583 5585 5588 5591 5596 5596 5598 5600 5601 5603 5604 5605 5606 5606 5606 5607 5607 5607 5607 5608 5608 5608 5608 5608 5607 5607 5607 5606 5605 5604 5602 5601 5599 5597 5595 5593 5591 5589 5588 5586 5585 5582 5581 5579 5577 5576